Back to catalog

STARLINK-3712

AliveCommunicationsVLEO
NORAD 52090·PAYLOAD·🇺🇸 United States

Launched Mar 19, 2022 from Cape Canaveral Space Force Station

Loading…

Next Passes (next 24 hours)

TLE

FreshSource: CelesTrak SupGP

Epoch: Sep 14, 2026, 13:26 UTC

1 52090C 22029C   26257.56020833  .00030594  00000+0  92855-3 0  2579
2 52090  53.1588 309.4900 0001312  77.1066  39.3592 15.33526898    19

Track STARLINK-3712 in real time with AllMySat

Download on the App Store